Time,TemperatureF,DewpointF,PressureIn,WindDirection,WindDirectionDegrees,WindSpeedMPH,WindSpeedGustMPH,Humidity,HourlyPrecipIn,Conditions,Clouds,dailyrainin,SoftwareType,DateUTC
2013-05-04 00:03:00,49.5,31.0,28.60,ENE,67,0.0,1.2,47,0.00,,,0.00,Rainwise IP-100,2013-05-04 05:03:00,
2013-05-04 00:08:00,49.4,29.0,28.60,ENE,67,0.0,0.0,47,0.00,,,0.00,Rainwise IP-100,2013-05-04 05:08:00,
2013-05-04 00:13:00,49.6,31.0,28.60,East,90,1.2,2.3,47,0.00,,,0.00,Rainwise IP-100,2013-05-04 05:13:00,
2013-05-04 00:18:00,49.8,31.0,28.60,East,90,1.4,2.6,47,0.00,,,0.00,Rainwise IP-100,2013-05-04 05:18:00,
2013-05-04 00:23:00,49.4,29.0,28.60,East,90,0.0,1.6,47,0.00,,,0.00,Rainwise IP-100,2013-05-04 05:23:00,
2013-05-04 00:28:00,49.0,31.0,28.60,East,90,0.0,1.6,48,0.00,,,0.00,Rainwise IP-100,2013-05-04 05:28:00,
2013-05-04 00:33:00,48.5,31.0,28.60,East,90,0.0,0.0,48,0.00,,,0.00,Rainwise IP-100,2013-05-04 05:33:00,
2013-05-04 00:38:00,47.9,31.0,28.60,East,90,0.0,1.2,50,0.00,,,0.00,Rainwise IP-100,2013-05-04 05:38:00,
2013-05-04 00:43:00,47.6,31.0,28.60,East,90,0.0,1.6,51,0.00,,,0.00,Rainwise IP-100,2013-05-04 05:43:00,
2013-05-04 00:48:00,47.6,31.0,28.60,East,90,0.0,2.3,52,0.00,,,0.00,Rainwise IP-100,2013-05-04 05:48:00,
2013-05-04 00:53:00,47.5,31.0,28.60,East,90,0.0,1.9,52,0.00,,,0.00,Rainwise IP-100,2013-05-04 05:53:00,
2013-05-04 00:58:00,47.3,31.0,28.60,ESE,112,0.0,1.9,53,0.00,,,0.00,Rainwise IP-100,2013-05-04 05:58:00,
2013-05-04 01:03:00,47.1,31.0,28.59,ESE,112,0.0,1.9,54,0.00,,,0.00,Rainwise IP-100,2013-05-04 06:03:00,
2013-05-04 01:08:00,46.8,31.0,28.59,ESE,112,0.0,1.9,54,0.00,,,0.00,Rainwise IP-100,2013-05-04 06:08:00,
2013-05-04 01:13:00,46.6,32.0,28.59,ESE,112,0.0,1.9,55,0.00,,,0.00,Rainwise IP-100,2013-05-04 06:13:00,
2013-05-04 01:18:00,46.4,31.0,28.58,ESE,112,0.0,1.9,56,0.00,,,0.00,Rainwise IP-100,2013-05-04 06:18:00,
2013-05-04 01:23:00,46.0,32.0,28.59,ESE,112,0.0,0.0,57,0.00,,,0.00,Rainwise IP-100,2013-05-04 06:23:00,
2013-05-04 01:28:00,45.3,31.0,28.58,ESE,112,0.0,0.0,58,0.00,,,0.00,Rainwise IP-100,2013-05-04 06:28:00,
2013-05-04 01:33:00,45.1,31.0,28.58,ESE,112,0.0,1.2,58,0.00,,,0.00,Rainwise IP-100,2013-05-04 06:33:00,
2013-05-04 01:38:00,45.1,32.0,28.58,ESE,112,1.2,1.2,59,0.00,,,0.00,Rainwise IP-100,2013-05-04 06:38:00,
2013-05-04 01:43:00,45.1,32.0,28.58,ESE,112,0.0,1.6,60,0.00,,,0.00,Rainwise IP-100,2013-05-04 06:43:00,
2013-05-04 01:48:00,45.1,32.0,28.57,ESE,112,0.0,1.2,60,0.00,,,0.00,Rainwise IP-100,2013-05-04 06:48:00,
2013-05-04 01:53:00,45.0,32.0,28.57,ESE,112,0.0,1.4,60,0.00,,,0.00,Rainwise IP-100,2013-05-04 06:53:00,
2013-05-04 01:58:00,44.9,32.0,28.57,ESE,112,0.0,0.0,60,0.00,,,0.00,Rainwise IP-100,2013-05-04 06:58:00,
2013-05-04 02:03:00,44.8,32.0,28.57,ESE,112,0.0,1.6,60,0.00,,,0.00,Rainwise IP-100,2013-05-04 07:03:00,
2013-05-04 02:08:00,44.6,32.0,28.56,ESE,112,0.0,1.2,61,0.00,,,0.00,Rainwise IP-100,2013-05-04 07:08:00,
2013-05-04 02:13:00,44.5,32.0,28.57,ESE,112,0.0,0.0,61,0.00,,,0.00,Rainwise IP-100,2013-05-04 07:13:00,
2013-05-04 02:18:00,43.9,32.0,28.56,ESE,112,0.0,0.0,63,0.00,,,0.00,Rainwise IP-100,2013-05-04 07:18:00,
2013-05-04 02:23:00,43.0,32.0,28.56,ESE,112,0.0,0.0,66,0.00,,,0.00,Rainwise IP-100,2013-05-04 07:23:00,
2013-05-04 02:28:00,41.9,33.0,28.56,ESE,112,0.0,1.4,69,0.00,,,0.00,Rainwise IP-100,2013-05-04 07:28:00,
2013-05-04 02:33:00,41.1,33.0,28.56,ESE,112,0.0,0.0,72,0.00,,,0.00,Rainwise IP-100,2013-05-04 07:33:00,
2013-05-04 02:38:00,40.6,33.0,28.56,ESE,112,0.0,0.0,74,0.00,,,0.00,Rainwise IP-100,2013-05-04 07:38:00,
2013-05-04 02:43:00,40.3,33.0,28.55,ESE,112,0.0,0.0,74,0.00,,,0.00,Rainwise IP-100,2013-05-04 07:43:00,
2013-05-04 02:49:00,40.2,33.0,28.55,ESE,112,0.0,0.0,76,0.00,,,0.00,Rainwise IP-100,2013-05-04 07:49:00,
2013-05-04 02:54:00,39.7,35.0,28.55,ESE,112,0.0,0.0,78,0.00,,,0.00,Rainwise IP-100,2013-05-04 07:54:00,
2013-05-04 02:59:00,39.2,33.0,28.55,ESE,112,0.0,0.0,79,0.00,,,0.00,Rainwise IP-100,2013-05-04 07:59:00,
2013-05-04 03:04:00,38.7,33.0,28.55,ESE,112,0.0,0.0,80,0.00,,,0.00,Rainwise IP-100,2013-05-04 08:04:00,
2013-05-04 03:09:00,38.4,33.0,28.55,ESE,112,0.0,0.0,82,0.00,,,0.00,Rainwise IP-100,2013-05-04 08:09:00,
2013-05-04 03:14:00,38.3,33.0,28.54,ESE,112,0.0,0.0,83,0.00,,,0.00,Rainwise IP-100,2013-05-04 08:14:00,
2013-05-04 03:19:00,38.1,33.0,28.54,ESE,112,0.0,0.0,83,0.00,,,0.00,Rainwise IP-100,2013-05-04 08:19:00,
2013-05-04 03:24:00,38.0,33.0,28.54,ESE,112,0.0,0.0,84,0.00,,,0.00,Rainwise IP-100,2013-05-04 08:24:00,
2013-05-04 03:29:00,38.1,33.0,28.54,ESE,112,0.0,0.0,83,0.00,,,0.00,Rainwise IP-100,2013-05-04 08:29:00,
2013-05-04 03:34:00,38.1,33.0,28.54,ESE,112,0.0,0.0,84,0.00,,,0.00,Rainwise IP-100,2013-05-04 08:34:00,
2013-05-04 03:39:00,37.8,35.0,28.54,ESE,112,0.0,0.0,85,0.00,,,0.00,Rainwise IP-100,2013-05-04 08:39:00,
2013-05-04 03:44:00,37.5,35.0,28.54,ESE,112,0.0,0.0,86,0.00,,,0.00,Rainwise IP-100,2013-05-04 08:44:00,
2013-05-04 03:49:00,37.4,33.0,28.54,ESE,112,0.0,0.0,86,0.00,,,0.00,Rainwise IP-100,2013-05-04 08:49:00,
2013-05-04 03:54:00,37.3,33.0,28.54,ESE,112,0.0,0.0,87,0.00,,,0.00,Rainwise IP-100,2013-05-04 08:54:00,
2013-05-04 03:59:00,37.1,33.0,28.54,ESE,112,0.0,0.0,87,0.00,,,0.00,Rainwise IP-100,2013-05-04 08:59:00,
2013-05-04 04:04:00,36.9,33.0,28.53,ESE,112,0.0,0.0,88,0.00,,,0.00,Rainwise IP-100,2013-05-04 09:04:00,
2013-05-04 04:09:00,36.9,33.0,28.54,ESE,112,0.0,0.0,88,0.00,,,0.00,Rainwise IP-100,2013-05-04 09:09:00,
2013-05-04 04:14:00,36.8,33.0,28.54,ESE,112,0.0,0.0,88,0.00,,,0.00,Rainwise IP-100,2013-05-04 09:14:00,
2013-05-04 04:19:00,36.9,33.0,28.54,ESE,112,0.0,0.0,87,0.00,,,0.00,Rainwise IP-100,2013-05-04 09:19:00,
2013-05-04 04:24:00,37.1,33.0,28.53,ESE,112,0.0,0.0,87,0.00,,,0.00,Rainwise IP-100,2013-05-04 09:24:00,
2013-05-04 04:29:00,37.4,33.0,28.53,ESE,112,0.0,0.0,86,0.00,,,0.00,Rainwise IP-100,2013-05-04 09:29:00,
2013-05-04 04:34:00,37.9,35.0,28.53,SSW,202,1.2,2.6,85,0.00,,,0.00,Rainwise IP-100,2013-05-04 09:34:00,
2013-05-04 04:39:00,39.9,35.0,28.53,WSW,247,1.2,3.3,79,0.00,,,0.00,Rainwise IP-100,2013-05-04 09:39:00,
2013-05-04 04:44:00,42.7,35.0,28.53,WSW,247,0.0,1.6,70,0.00,,,0.00,Rainwise IP-100,2013-05-04 09:44:00,
2013-05-04 04:49:00,44.0,33.0,28.53,WSW,247,0.0,1.6,65,0.00,,,0.00,Rainwise IP-100,2013-05-04 09:49:00,
2013-05-04 04:54:00,44.0,33.0,28.53,WSW,247,0.0,2.3,65,0.00,,,0.00,Rainwise IP-100,2013-05-04 09:54:00,
2013-05-04 04:59:00,43.9,33.0,28.53,WSW,247,2.6,4.2,64,0.00,,,0.00,Rainwise IP-100,2013-05-04 09:59:00,
2013-05-04 05:04:00,44.9,32.0,28.53,SW,225,1.9,5.4,61,0.00,,,0.00,Rainwise IP-100,2013-05-04 10:04:00,
2013-05-04 05:09:00,46.3,32.0,28.53,SW,225,1.6,4.4,57,0.00,,,0.00,Rainwise IP-100,2013-05-04 10:09:00,
2013-05-04 05:14:00,46.8,32.0,28.53,WSW,247,2.1,3.3,55,0.00,,,0.00,Rainwise IP-100,2013-05-04 10:14:00,
2013-05-04 05:19:00,47.0,31.0,28.54,SW,225,2.6,3.7,54,0.00,,,0.00,Rainwise IP-100,2013-05-04 10:19:00,
2013-05-04 05:24:00,47.1,31.0,28.53,SW,225,1.4,2.6,54,0.00,,,0.00,Rainwise IP-100,2013-05-04 10:24:00,
2013-05-04 05:29:00,47.0,31.0,28.53,SW,225,1.2,2.1,54,0.00,,,0.00,Rainwise IP-100,2013-05-04 10:29:00,
2013-05-04 05:34:00,46.9,31.0,28.54,SW,225,0.0,1.6,54,0.00,,,0.00,Rainwise IP-100,2013-05-04 10:34:00,
2013-05-04 05:39:00,46.7,31.0,28.54,SW,225,0.0,2.8,54,0.00,,,0.00,Rainwise IP-100,2013-05-04 10:39:00,
2013-05-04 05:44:00,46.3,31.0,28.54,SW,225,0.0,1.9,54,0.00,,,0.00,Rainwise IP-100,2013-05-04 10:44:00,
2013-05-04 05:49:00,46.0,31.0,28.54,SW,225,1.2,1.9,54,0.00,,,0.00,Rainwise IP-100,2013-05-04 10:49:00,
2013-05-04 05:54:00,45.7,31.0,28.54,SW,225,0.0,1.9,55,0.00,,,0.00,Rainwise IP-100,2013-05-04 10:54:00,
2013-05-04 05:59:00,45.5,31.0,28.54,SW,225,1.2,2.1,55,0.00,,,0.00,Rainwise IP-100,2013-05-04 10:59:00,
2013-05-04 06:04:00,45.4,31.0,28.55,SW,225,0.0,1.6,55,0.00,,,0.00,Rainwise IP-100,2013-05-04 11:04:00,
2013-05-04 06:09:00,44.9,31.0,28.55,SW,225,0.0,1.4,57,0.00,,,0.00,Rainwise IP-100,2013-05-04 11:09:00,
2013-05-04 06:14:00,44.0,31.0,28.55,SW,225,0.0,1.9,60,0.00,,,0.00,Rainwise IP-100,2013-05-04 11:14:00,
2013-05-04 06:19:00,43.0,32.0,28.55,SW,225,0.0,0.0,63,0.00,,,0.00,Rainwise IP-100,2013-05-04 11:19:00,
2013-05-04 06:24:00,42.2,32.0,28.55,SW,225,0.0,0.0,65,0.00,,,0.00,Rainwise IP-100,2013-05-04 11:24:00,
2013-05-04 06:29:00,41.4,32.0,28.55,SW,225,0.0,0.0,68,0.00,,,0.00,Rainwise IP-100,2013-05-04 11:29:00,
2013-05-04 06:34:00,40.4,32.0,28.55,SW,225,0.0,0.0,71,0.00,,,0.00,Rainwise IP-100,2013-05-04 11:34:00,
2013-05-04 06:39:00,39.6,33.0,28.55,SW,225,0.0,0.0,75,0.00,,,0.00,Rainwise IP-100,2013-05-04 11:39:00,
2013-05-04 06:44:00,38.9,32.0,28.55,SW,225,0.0,0.0,76,0.00,,,0.00,Rainwise IP-100,2013-05-04 11:44:00,
2013-05-04 06:49:00,38.5,32.0,28.55,SW,225,0.0,0.0,77,0.00,,,0.00,Rainwise IP-100,2013-05-04 11:49:00,
2013-05-04 06:50:00,38.4,32.0,28.56,SW,225,0.0,0.0,78,0.00,,,0.00,Rainwise IP-100,2013-05-04 11:50:00,
2013-05-04 06:55:00,38.2,32.0,28.56,SW,225,0.0,0.0,79,0.00,,,0.00,Rainwise IP-100,2013-05-04 11:55:00,
2013-05-04 07:00:00,37.8,33.0,28.56,SW,225,0.0,0.0,81,0.00,,,0.00,Rainwise IP-100,2013-05-04 12:00:00,
2013-05-04 07:05:00,37.5,33.0,28.56,SW,225,0.0,0.0,82,0.00,,,0.00,Rainwise IP-100,2013-05-04 12:05:00,
2013-05-04 07:10:00,37.6,33.0,28.57,SW,225,0.0,0.0,82,0.00,,,0.00,Rainwise IP-100,2013-05-04 12:10:00,
2013-05-04 07:15:00,38.1,33.0,28.57,SW,225,0.0,0.0,83,0.00,,,0.00,Rainwise IP-100,2013-05-04 12:15:00,
2013-05-04 07:20:00,39.1,33.0,28.58,WNW,292,1.4,2.6,79,0.00,,,0.00,Rainwise IP-100,2013-05-04 12:20:00,
2013-05-04 07:25:00,41.2,33.0,28.58,WNW,292,0.0,2.3,72,0.00,,,0.00,Rainwise IP-100,2013-05-04 12:25:00,
2013-05-04 07:30:00,43.1,33.0,28.58,WNW,292,1.9,1.9,67,0.00,,,0.00,Rainwise IP-100,2013-05-04 12:30:00,
2013-05-04 07:35:00,44.1,33.0,28.59,WNW,292,0.0,2.8,64,0.00,,,0.00,Rainwise IP-100,2013-05-04 12:35:00,
2013-05-04 07:40:00,45.3,33.0,28.59,WNW,292,2.1,2.8,62,0.00,,,0.00,Rainwise IP-100,2013-05-04 12:40:00,
2013-05-04 07:45:00,46.2,32.0,28.59,WNW,292,1.9,3.5,59,0.00,,,0.00,Rainwise IP-100,2013-05-04 12:45:00,
2013-05-04 07:50:00,47.2,32.0,28.59,WNW,292,2.3,3.5,57,0.00,,,0.00,Rainwise IP-100,2013-05-04 12:50:00,
2013-05-04 07:55:00,48.2,33.0,28.60,NW,315,3.5,4.2,55,0.00,,,0.00,Rainwise IP-100,2013-05-04 12:55:00,
2013-05-04 08:00:00,49.0,33.0,28.60,NNW,337,1.2,4.7,53,0.00,,,0.00,Rainwise IP-100,2013-05-04 13:00:00,
2013-05-04 08:05:00,49.8,32.0,28.60,NNW,337,3.5,3.7,51,0.00,,,0.00,Rainwise IP-100,2013-05-04 13:05:00,
2013-05-04 08:10:00,50.5,33.0,28.60,NW,315,4.0,7.0,50,0.00,,,0.00,Rainwise IP-100,2013-05-04 13:10:00,
2013-05-04 08:15:00,51.2,33.0,28.60,WNW,292,4.9,7.5,49,0.00,,,0.00,Rainwise IP-100,2013-05-04 13:15:00,
2013-05-04 08:20:00,51.9,32.0,28.60,NNW,337,0.0,7.5,47,0.00,,,0.00,Rainwise IP-100,2013-05-04 13:20:00,
2013-05-04 08:25:00,52.7,32.0,28.60,NW,315,4.2,7.9,46,0.00,,,0.00,Rainwise IP-100,2013-05-04 13:25:00,
2013-05-04 08:30:00,53.5,32.0,28.60,West,270,3.5,7.0,45,0.00,,,0.00,Rainwise IP-100,2013-05-04 13:30:00,
2013-05-04 08:35:00,54.3,32.0,28.60,West,270,5.1,5.6,43,0.00,,,0.00,Rainwise IP-100,2013-05-04 13:35:00,
2013-05-04 08:40:00,55.1,32.0,28.60,WNW,292,2.1,7.9,41,0.00,,,0.00,Rainwise IP-100,2013-05-04 13:40:00,
2013-05-04 08:45:00,56.0,32.0,28.60,West,270,4.0,10.5,39,0.00,,,0.00,Rainwise IP-100,2013-05-04 13:45:00,
2013-05-04 08:50:00,56.8,32.0,28.60,West,270,0.0,6.1,38,0.00,,,0.00,Rainwise IP-100,2013-05-04 13:50:00,
2013-05-04 08:55:00,57.7,31.0,28.60,WSW,247,4.0,12.1,36,0.00,,,0.00,Rainwise IP-100,2013-05-04 13:55:00,
2013-05-04 09:00:00,58.5,32.0,28.60,West,270,5.4,9.6,35,0.00,,,0.00,Rainwise IP-100,2013-05-04 14:00:00,
2013-05-04 09:05:00,59.0,31.0,28.60,WSW,247,4.9,11.7,33,0.00,,,0.00,Rainwise IP-100,2013-05-04 14:05:00,
2013-05-04 09:10:00,59.4,31.0,28.60,WSW,247,4.2,11.9,33,0.00,,,0.00,Rainwise IP-100,2013-05-04 14:10:00,
2013-05-04 09:15:00,59.7,31.0,28.60,West,270,4.7,9.1,33,0.00,,,0.00,Rainwise IP-100,2013-05-04 14:15:00,
2013-05-04 09:16:00,59.8,31.0,28.60,South,180,3.3,9.6,33,0.00,,,0.00,Rainwise IP-100,2013-05-04 14:16:00,
2013-05-04 09:21:00,60.1,32.0,28.60,SW,225,5.4,9.1,34,0.00,,,0.00,Rainwise IP-100,2013-05-04 14:21:00,
2013-05-04 09:26:00,60.3,31.0,28.59,WSW,247,2.1,11.2,33,0.00,,,0.00,Rainwise IP-100,2013-05-04 14:26:00,
2013-05-04 09:31:00,60.5,31.0,28.60,WSW,247,5.4,11.0,33,0.00,,,0.00,Rainwise IP-100,2013-05-04 14:31:00,
2013-05-04 09:36:00,61.0,32.0,28.60,West,270,9.6,11.2,33,0.00,,,0.00,Rainwise IP-100,2013-05-04 14:36:00,
2013-05-04 09:41:00,61.6,32.0,28.59,West,270,4.7,11.0,32,0.00,,,0.00,Rainwise IP-100,2013-05-04 14:41:00,
2013-05-04 09:46:00,62.1,31.0,28.59,WSW,247,5.6,13.1,31,0.00,,,0.00,Rainwise IP-100,2013-05-04 14:46:00,
2013-05-04 09:51:00,62.6,31.0,28.60,WSW,247,9.1,11.9,30,0.00,,,0.00,Rainwise IP-100,2013-05-04 14:51:00,
2013-05-04 09:56:00,62.8,31.0,28.59,SSW,202,5.4,11.2,29,0.00,,,0.00,Rainwise IP-100,2013-05-04 14:56:00,
2013-05-04 10:01:00,63.1,31.0,28.59,SW,225,7.5,13.1,29,0.00,,,0.00,Rainwise IP-100,2013-05-04 15:01:00,
2013-05-04 10:06:00,63.4,31.0,28.59,WSW,247,8.2,13.5,29,0.00,,,0.00,Rainwise IP-100,2013-05-04 15:06:00,
2013-05-04 10:11:00,63.7,31.0,28.60,WNW,292,1.9,12.8,28,0.00,,,0.00,Rainwise IP-100,2013-05-04 15:11:00,
2013-05-04 10:16:00,64.4,31.0,28.59,West,270,10.3,11.2,28,0.00,,,0.00,Rainwise IP-100,2013-05-04 15:16:00,
2013-05-04 10:21:00,65.2,31.0,28.60,West,270,12.4,18.9,27,0.00,,,0.00,Rainwise IP-100,2013-05-04 15:21:00,
2013-05-04 10:26:00,65.6,28.0,28.59,West,270,7.2,17.3,24,0.00,,,0.00,Rainwise IP-100,2013-05-04 15:26:00,
2013-05-04 10:31:00,66.0,28.0,28.58,WSW,247,10.5,16.3,23,0.00,,,0.00,Rainwise IP-100,2013-05-04 15:31:00,
2013-05-04 10:36:00,66.4,28.0,28.59,WSW,247,6.5,19.1,23,0.00,,,0.00,Rainwise IP-100,2013-05-04 15:36:00,
2013-05-04 10:41:00,67.0,28.0,28.59,WNW,292,6.5,17.5,23,0.00,,,0.00,Rainwise IP-100,2013-05-04 15:41:00,
2013-05-04 10:46:00,67.3,29.0,28.59,West,270,14.0,18.7,23,0.00,,,0.00,Rainwise IP-100,2013-05-04 15:46:00,
2013-05-04 10:51:00,67.4,29.0,28.59,West,270,7.0,19.1,23,0.00,,,0.00,Rainwise IP-100,2013-05-04 15:51:00,
2013-05-04 10:56:00,67.7,29.0,28.59,SW,225,10.7,17.0,23,0.00,,,0.00,Rainwise IP-100,2013-05-04 15:56:00,
2013-05-04 11:01:00,67.7,29.0,28.58,West,270,11.4,14.9,23,0.00,,,0.00,Rainwise IP-100,2013-05-04 16:01:00,
2013-05-04 11:06:00,67.9,29.0,28.58,West,270,7.0,14.0,23,0.00,,,0.00,Rainwise IP-100,2013-05-04 16:06:00,
2013-05-04 11:11:00,68.2,29.0,28.58,WSW,247,7.5,18.2,23,0.00,,,0.00,Rainwise IP-100,2013-05-04 16:11:00,
2013-05-04 11:16:00,68.6,28.0,28.58,WSW,247,9.3,15.9,22,0.00,,,0.00,Rainwise IP-100,2013-05-04 16:16:00,
2013-05-04 11:21:00,68.9,29.0,28.58,WSW,247,5.4,15.4,22,0.00,,,0.00,Rainwise IP-100,2013-05-04 16:21:00,
2013-05-04 11:26:00,68.9,29.0,28.58,WSW,247,7.2,16.8,22,0.00,,,0.00,Rainwise IP-100,2013-05-04 16:26:00,
2013-05-04 11:31:00,69.2,28.0,28.57,WSW,247,8.4,13.8,21,0.00,,,0.00,Rainwise IP-100,2013-05-04 16:31:00,
2013-05-04 11:36:00,69.6,28.0,28.57,West,270,10.7,14.7,21,0.00,,,0.00,Rainwise IP-100,2013-05-04 16:36:00,
2013-05-04 11:41:00,70.1,28.0,28.57,WNW,292,6.8,14.2,20,0.00,,,0.00,Rainwise IP-100,2013-05-04 16:41:00,
2013-05-04 11:46:00,70.6,28.0,28.57,West,270,0.0,18.7,20,0.00,,,0.00,Rainwise IP-100,2013-05-04 16:46:00,
2013-05-04 11:51:00,71.1,28.0,28.57,NNE,22,2.6,11.4,20,0.00,,,0.00,Rainwise IP-100,2013-05-04 16:51:00,
2013-05-04 11:56:00,71.8,28.0,28.57,WNW,292,14.9,18.4,19,0.00,,,0.00,Rainwise IP-100,2013-05-04 16:56:00,
2013-05-04 12:01:00,72.2,26.0,28.57,WSW,247,5.8,14.9,18,0.00,,,0.00,Rainwise IP-100,2013-05-04 17:01:00,
2013-05-04 12:06:00,72.5,28.0,28.56,NW,315,5.8,12.1,18,0.00,,,0.00,Rainwise IP-100,2013-05-04 17:06:00,
2013-05-04 12:11:00,73.1,28.0,28.56,NNW,337,1.2,13.1,18,0.00,,,0.00,Rainwise IP-100,2013-05-04 17:11:00,
2013-05-04 12:16:00,73.5,28.0,28.56,NW,315,6.1,15.6,18,0.00,,,0.00,Rainwise IP-100,2013-05-04 17:16:00,
2013-05-04 12:21:00,73.7,26.0,28.56,WNW,292,3.0,13.8,17,0.00,,,0.00,Rainwise IP-100,2013-05-04 17:21:00,
2013-05-04 12:26:00,73.6,24.0,28.56,NNW,337,3.5,17.0,16,0.00,,,0.00,Rainwise IP-100,2013-05-04 17:26:00,
2013-05-04 12:31:00,73.5,26.0,28.56,WNW,292,8.4,17.7,17,0.00,,,0.00,Rainwise IP-100,2013-05-04 17:31:00,
2013-05-04 12:36:00,73.6,26.0,28.56,West,270,7.5,12.6,17,0.00,,,0.00,Rainwise IP-100,2013-05-04 17:36:00,
2013-05-04 12:41:00,73.7,26.0,28.55,West,270,5.4,14.0,17,0.00,,,0.00,Rainwise IP-100,2013-05-04 17:41:00,
2013-05-04 12:46:00,73.6,26.0,28.55,NNW,337,3.3,13.5,17,0.00,,,0.00,Rainwise IP-100,2013-05-04 17:46:00,
2013-05-04 12:51:00,73.8,26.0,28.54,NNW,337,4.2,10.5,17,0.00,,,0.00,Rainwise IP-100,2013-05-04 17:51:00,
2013-05-04 12:56:00,74.3,28.0,28.55,NNW,337,1.9,11.2,17,0.00,,,0.00,Rainwise IP-100,2013-05-04 17:56:00,
2013-05-04 13:01:00,74.4,26.0,28.54,West,270,4.2,11.9,16,0.00,,,0.00,Rainwise IP-100,2013-05-04 18:01:00,
2013-05-04 13:07:00,74.4,28.0,28.54,West,270,7.2,13.1,17,0.00,,,0.00,Rainwise IP-100,2013-05-04 18:07:00,
2013-05-04 13:12:00,74.6,28.0,28.54,NW,315,3.5,10.7,17,0.00,,,0.00,Rainwise IP-100,2013-05-04 18:12:00,
2013-05-04 13:17:00,74.7,28.0,28.53,WNW,292,4.4,11.4,17,0.00,,,0.00,Rainwise IP-100,2013-05-04 18:17:00,
2013-05-04 13:22:00,74.9,28.0,28.54,NNW,337,6.5,12.1,17,0.00,,,0.00,Rainwise IP-100,2013-05-04 18:22:00,
2013-05-04 13:27:00,75.0,28.0,28.53,NNW,337,5.4,11.2,17,0.00,,,0.00,Rainwise IP-100,2013-05-04 18:27:00,
2013-05-04 13:32:00,75.2,28.0,28.53,WSW,247,2.1,11.0,17,0.00,,,0.00,Rainwise IP-100,2013-05-04 18:32:00,
2013-05-04 13:37:00,75.3,28.0,28.53,SW,225,0.0,11.7,17,0.00,,,0.00,Rainwise IP-100,2013-05-04 18:37:00,
2013-05-04 13:42:00,75.3,28.0,28.53,West,270,4.9,9.8,17,0.00,,,0.00,Rainwise IP-100,2013-05-04 18:42:00,
2013-05-04 13:47:00,75.4,28.0,28.53,NNW,337,5.1,11.4,17,0.00,,,0.00,Rainwise IP-100,2013-05-04 18:47:00,
2013-05-04 13:52:00,75.7,29.0,28.52,WNW,292,1.4,9.6,18,0.00,,,0.00,Rainwise IP-100,2013-05-04 18:52:00,
2013-05-04 13:57:00,76.1,28.0,28.52,WNW,292,1.6,10.5,17,0.00,,,0.00,Rainwise IP-100,2013-05-04 18:57:00,
2013-05-04 14:02:00,76.4,28.0,28.52,NNW,337,3.7,11.7,16,0.00,,,0.00,Rainwise IP-100,2013-05-04 19:02:00,
2013-05-04 14:07:00,76.6,28.0,28.52,West,270,4.0,11.0,16,0.00,,,0.00,Rainwise IP-100,2013-05-04 19:07:00,
2013-05-04 14:12:00,76.8,28.0,28.52,WSW,247,13.8,13.8,16,0.00,,,0.00,Rainwise IP-100,2013-05-04 19:12:00,
2013-05-04 14:17:00,76.8,28.0,28.52,West,270,3.3,13.8,16,0.00,,,0.00,Rainwise IP-100,2013-05-04 19:17:00,
2013-05-04 14:22:00,76.7,28.0,28.52,WSW,247,3.7,10.5,16,0.00,,,0.00,Rainwise IP-100,2013-05-04 19:22:00,
2013-05-04 14:27:00,76.9,28.0,28.51,NNE,22,6.8,10.0,16,0.00,,,0.00,Rainwise IP-100,2013-05-04 19:27:00,
2013-05-04 14:32:00,77.4,28.0,28.52,WNW,292,1.9,13.3,16,0.00,,,0.00,Rainwise IP-100,2013-05-04 19:32:00,
2013-05-04 14:37:00,77.7,28.0,28.51,ENE,67,2.6,8.6,16,0.00,,,0.00,Rainwise IP-100,2013-05-04 19:37:00,
2013-05-04 14:42:00,77.3,28.0,28.51,SSE,157,3.5,8.6,16,0.00,,,0.00,Rainwise IP-100,2013-05-04 19:42:00,
2013-05-04 14:47:00,77.0,28.0,28.51,North,360,5.4,12.1,16,0.00,,,0.00,Rainwise IP-100,2013-05-04 19:47:00,
2013-05-04 14:52:00,77.6,28.0,28.51,West,270,4.7,11.9,16,0.00,,,0.00,Rainwise IP-100,2013-05-04 19:52:00,
2013-05-04 14:57:00,77.5,28.0,28.51,SSW,202,3.7,8.9,16,0.00,,,0.00,Rainwise IP-100,2013-05-04 19:57:00,
2013-05-04 15:02:00,77.1,28.0,28.51,WNW,292,4.2,7.7,16,0.00,,,0.00,Rainwise IP-100,2013-05-04 20:02:00,
2013-05-04 15:07:00,77.7,28.0,28.51,West,270,0.0,9.3,16,0.00,,,0.00,Rainwise IP-100,2013-05-04 20:07:00,
2013-05-04 15:12:00,78.1,29.0,28.50,WSW,247,3.7,7.0,16,0.00,,,0.00,Rainwise IP-100,2013-05-04 20:12:00,
2013-05-04 15:17:00,77.8,28.0,28.50,NNW,337,6.3,8.6,16,0.00,,,0.00,Rainwise IP-100,2013-05-04 20:17:00,
2013-05-04 15:22:00,77.9,29.0,28.50,WNW,292,1.9,9.1,16,0.00,,,0.00,Rainwise IP-100,2013-05-04 20:22:00,
2013-05-04 15:27:00,78.0,29.0,28.50,WSW,247,3.5,10.7,16,0.00,,,0.00,Rainwise IP-100,2013-05-04 20:27:00,
2013-05-04 15:32:00,77.9,29.0,28.49,NNE,22,5.1,10.0,16,0.00,,,0.00,Rainwise IP-100,2013-05-04 20:32:00,
2013-05-04 15:37:00,78.2,29.0,28.49,WSW,247,3.3,7.5,16,0.00,,,0.00,Rainwise IP-100,2013-05-04 20:37:00,
2013-05-04 15:42:00,78.2,29.0,28.49,SSW,202,5.1,7.5,16,0.00,,,0.00,Rainwise IP-100,2013-05-04 20:42:00,
2013-05-04 15:47:00,77.9,29.0,28.48,WSW,247,7.7,7.7,16,0.00,,,0.00,Rainwise IP-100,2013-05-04 20:47:00,
2013-05-04 15:52:00,77.9,29.0,28.48,NNW,337,2.8,10.7,16,0.00,,,0.00,Rainwise IP-100,2013-05-04 20:52:00,
2013-05-04 15:57:00,78.5,29.0,28.48,North,360,4.0,10.5,16,0.00,,,0.00,Rainwise IP-100,2013-05-04 20:57:00,
2013-05-04 16:02:00,79.4,28.0,28.48,WSW,247,6.1,10.5,15,0.00,,,0.00,Rainwise IP-100,2013-05-04 21:02:00,
2013-05-04 16:07:00,79.1,28.0,28.48,West,270,1.9,7.2,15,0.00,,,0.00,Rainwise IP-100,2013-05-04 21:07:00,
2013-05-04 16:12:00,78.5,28.0,28.48,SW,225,4.0,10.3,15,0.00,,,0.00,Rainwise IP-100,2013-05-04 21:12:00,
2013-05-04 16:17:00,78.4,28.0,28.47,WSW,247,2.3,8.9,15,0.00,,,0.00,Rainwise IP-100,2013-05-04 21:17:00,
2013-05-04 16:22:00,78.5,28.0,28.47,SSW,202,1.9,8.4,15,0.00,,,0.00,Rainwise IP-100,2013-05-04 21:22:00,
2013-05-04 16:27:00,79.3,28.0,28.47,NNE,22,7.5,11.2,15,0.00,,,0.00,Rainwise IP-100,2013-05-04 21:27:00,
2013-05-04 16:32:00,80.3,29.0,28.47,NNE,22,1.6,8.2,15,0.00,,,0.00,Rainwise IP-100,2013-05-04 21:32:00,
2013-05-04 16:37:00,80.2,29.0,28.47,NE,45,4.9,8.6,15,0.00,,,0.00,Rainwise IP-100,2013-05-04 21:37:00,
2013-05-04 16:42:00,80.1,28.0,28.46,NW,315,6.1,9.6,15,0.00,,,0.00,Rainwise IP-100,2013-05-04 21:42:00,
2013-05-04 16:47:00,80.7,29.0,28.46,NNE,22,2.6,8.9,15,0.00,,,0.00,Rainwise IP-100,2013-05-04 21:47:00,
2013-05-04 16:52:00,80.6,29.0,28.46,NNE,22,3.7,8.2,15,0.00,,,0.00,Rainwise IP-100,2013-05-04 21:52:00,
2013-05-04 16:57:00,80.9,29.0,28.46,NW,315,7.9,12.1,15,0.00,,,0.00,Rainwise IP-100,2013-05-04 21:57:00,
2013-05-04 17:02:00,81.3,29.0,28.46,North,360,3.5,9.6,15,0.00,,,0.00,Rainwise IP-100,2013-05-04 22:02:00,
2013-05-04 17:07:00,81.3,29.0,28.46,NNW,337,12.1,12.1,15,0.00,,,0.00,Rainwise IP-100,2013-05-04 22:07:00,
2013-05-04 17:12:00,81.3,28.0,28.47,West,270,5.1,14.9,14,0.00,,,0.00,Rainwise IP-100,2013-05-04 22:12:00,
2013-05-04 17:17:00,81.0,28.0,28.46,NNW,337,3.7,10.7,14,0.00,,,0.00,Rainwise IP-100,2013-05-04 22:17:00,
2013-05-04 17:22:00,80.4,29.0,28.47,WNW,292,4.9,7.7,15,0.00,,,0.00,Rainwise IP-100,2013-05-04 22:22:00,
2013-05-04 17:27:00,79.5,28.0,28.46,North,360,1.6,5.6,15,0.00,,,0.00,Rainwise IP-100,2013-05-04 22:27:00,
2013-05-04 17:32:00,79.1,28.0,28.46,NNE,22,2.3,10.0,15,0.00,,,0.00,Rainwise IP-100,2013-05-04 22:32:00,
2013-05-04 17:37:00,79.1,28.0,28.46,West,270,6.1,9.1,15,0.00,,,0.00,Rainwise IP-100,2013-05-04 22:37:00,
2013-05-04 17:42:00,79.2,28.0,28.47,NW,315,4.0,10.5,15,0.00,,,0.00,Rainwise IP-100,2013-05-04 22:42:00,
2013-05-04 17:47:00,79.0,29.0,28.47,NW,315,0.0,7.9,16,0.00,,,0.00,Rainwise IP-100,2013-05-04 22:47:00,
2013-05-04 17:52:00,79.0,29.0,28.46,WSW,247,4.0,7.5,16,0.00,,,0.00,Rainwise IP-100,2013-05-04 22:52:00,
2013-05-04 17:57:00,79.5,29.0,28.46,West,270,5.6,7.7,16,0.00,,,0.00,Rainwise IP-100,2013-05-04 22:57:00,
2013-05-04 18:02:00,79.1,29.0,28.46,WSW,247,3.0,7.7,16,0.00,,,0.00,Rainwise IP-100,2013-05-04 23:02:00,
2013-05-04 18:07:00,78.3,29.0,28.46,NNE,22,4.9,7.2,16,0.00,,,0.00,Rainwise IP-100,2013-05-04 23:07:00,
2013-05-04 18:12:00,78.1,29.0,28.46,NW,315,1.2,7.0,17,0.00,,,0.00,Rainwise IP-100,2013-05-04 23:12:00,
2013-05-04 18:17:00,77.8,29.0,28.46,WNW,292,6.5,7.7,17,0.00,,,0.00,Rainwise IP-100,2013-05-04 23:17:00,
2013-05-04 18:22:00,77.5,29.0,28.46,NW,315,4.2,7.9,17,0.00,,,0.00,Rainwise IP-100,2013-05-04 23:22:00,
2013-05-04 18:27:00,77.3,28.0,28.46,NW,315,1.9,7.9,16,0.00,,,0.00,Rainwise IP-100,2013-05-04 23:27:00,
2013-05-04 18:32:00,77.1,29.0,28.46,West,270,4.0,4.0,17,0.00,,,0.00,Rainwise IP-100,2013-05-04 23:32:00,
2013-05-04 18:37:00,77.0,29.0,28.47,WNW,292,1.4,4.0,17,0.00,,,0.00,Rainwise IP-100,2013-05-04 23:37:00,
2013-05-04 18:42:00,77.2,29.0,28.46,NNW,337,3.0,7.7,17,0.00,,,0.00,Rainwise IP-100,2013-05-04 23:42:00,
2013-05-04 18:47:00,77.5,29.0,28.46,WNW,292,2.3,7.5,17,0.00,,,0.00,Rainwise IP-100,2013-05-04 23:47:00,
2013-05-04 18:52:00,77.6,29.0,28.46,WNW,292,2.6,6.5,17,0.00,,,0.00,Rainwise IP-100,2013-05-04 23:52:00,
2013-05-04 18:57:00,77.3,29.0,28.47,NNW,337,2.6,6.8,17,0.00,,,0.00,Rainwise IP-100,2013-05-04 23:57:00,
2013-05-04 19:02:00,77.1,29.0,28.46,NW,315,0.0,4.4,17,0.00,,,0.00,Rainwise IP-100,2013-05-05 00:02:00,
2013-05-04 19:07:00,77.1,29.0,28.47,NW,315,2.3,7.7,17,0.00,,,0.00,Rainwise IP-100,2013-05-05 00:07:00,
2013-05-04 19:12:00,77.1,29.0,28.47,NNW,337,1.4,7.2,17,0.00,,,0.00,Rainwise IP-100,2013-05-05 00:12:00,
2013-05-04 19:17:00,77.2,29.0,28.47,NNW,337,3.5,6.3,17,0.00,,,0.00,Rainwise IP-100,2013-05-05 00:17:00,
2013-05-04 19:22:00,77.4,29.0,28.47,NW,315,4.4,7.0,17,0.00,,,0.00,Rainwise IP-100,2013-05-05 00:22:00,
2013-05-04 19:27:00,77.2,28.0,28.47,NNW,337,3.3,7.7,16,0.00,,,0.00,Rainwise IP-100,2013-05-05 00:27:00,
2013-05-04 19:32:00,76.9,28.0,28.47,NNW,337,0.0,8.4,16,0.00,,,0.00,Rainwise IP-100,2013-05-05 00:32:00,
2013-05-04 19:37:00,76.4,29.0,28.47,NNW,337,1.6,5.1,17,0.00,,,0.00,Rainwise IP-100,2013-05-05 00:37:00,
2013-05-04 19:42:00,75.6,29.0,28.48,NNW,337,2.6,3.3,18,0.00,,,0.00,Rainwise IP-100,2013-05-05 00:42:00,
2013-05-04 19:47:00,74.7,29.0,28.48,North,360,2.6,6.1,18,0.00,,,0.00,Rainwise IP-100,2013-05-05 00:47:00,
2013-05-04 19:52:00,73.8,28.0,28.48,NNW,337,1.4,3.5,18,0.00,,,0.00,Rainwise IP-100,2013-05-05 00:52:00,
2013-05-04 19:57:00,73.2,29.0,28.48,NNW,337,0.0,2.3,19,0.00,,,0.00,Rainwise IP-100,2013-05-05 00:57:00,
2013-05-04 20:02:00,72.7,28.0,28.49,NNW,337,0.0,1.9,19,0.00,,,0.00,Rainwise IP-100,2013-05-05 01:02:00,
2013-05-04 20:07:00,72.0,31.0,28.49,NNW,337,1.2,1.9,21,0.00,,,0.00,Rainwise IP-100,2013-05-05 01:07:00,
2013-05-04 20:12:00,71.0,31.0,28.49,NNW,337,0.0,1.4,22,0.00,,,0.00,Rainwise IP-100,2013-05-05 01:12:00,
2013-05-04 20:17:00,70.1,29.0,28.49,NNW,337,0.0,2.3,22,0.00,,,0.00,Rainwise IP-100,2013-05-05 01:17:00,
2013-05-04 20:22:00,69.3,31.0,28.49,NNW,337,0.0,1.6,23,0.00,,,0.00,Rainwise IP-100,2013-05-05 01:22:00,
2013-05-04 20:27:00,68.4,31.0,28.50,NNW,337,2.1,2.6,24,0.00,,,0.00,Rainwise IP-100,2013-05-05 01:27:00,
2013-05-04 20:32:00,67.8,31.0,28.50,NNW,337,1.9,2.3,24,0.00,,,0.00,Rainwise IP-100,2013-05-05 01:32:00,
2013-05-04 20:37:00,67.4,29.0,28.50,NNW,337,0.0,2.8,24,0.00,,,0.00,Rainwise IP-100,2013-05-05 01:37:00,
2013-05-04 20:42:00,67.0,29.0,28.50,NNW,337,1.4,2.8,24,0.00,,,0.00,Rainwise IP-100,2013-05-05 01:42:00,
2013-05-04 20:47:00,66.7,31.0,28.50,North,360,2.1,5.1,25,0.00,,,0.00,Rainwise IP-100,2013-05-05 01:47:00,
2013-05-04 20:52:00,66.3,29.0,28.50,North,360,1.6,4.2,25,0.00,,,0.00,Rainwise IP-100,2013-05-05 01:52:00,
2013-05-04 20:57:00,66.1,29.0,28.50,NNW,337,2.1,3.7,25,0.00,,,0.00,Rainwise IP-100,2013-05-05 01:57:00,
2013-05-04 21:02:00,66.0,29.0,28.51,North,360,2.3,3.7,25,0.00,,,0.00,Rainwise IP-100,2013-05-05 02:02:00,
2013-05-04 21:07:00,65.8,31.0,28.51,NNW,337,5.1,5.1,26,0.00,,,0.00,Rainwise IP-100,2013-05-05 02:07:00,
2013-05-04 21:12:00,65.6,29.0,28.51,NW,315,3.5,5.8,25,0.00,,,0.00,Rainwise IP-100,2013-05-05 02:12:00,
2013-05-04 21:17:00,65.6,29.0,28.52,North,360,6.8,10.7,25,0.00,,,0.00,Rainwise IP-100,2013-05-05 02:17:00,
2013-05-04 21:22:00,65.8,29.0,28.52,North,360,5.4,8.4,25,0.00,,,0.00,Rainwise IP-100,2013-05-05 02:22:00,
2013-05-04 21:27:00,65.9,29.0,28.52,North,360,3.0,9.1,25,0.00,,,0.00,Rainwise IP-100,2013-05-05 02:27:00,
2013-05-04 21:32:00,65.7,29.0,28.52,NNE,22,6.5,7.7,25,0.00,,,0.00,Rainwise IP-100,2013-05-05 02:32:00,
2013-05-04 21:37:00,65.5,29.0,28.52,NNE,22,3.7,7.2,25,0.00,,,0.00,Rainwise IP-100,2013-05-05 02:37:00,
2013-05-04 21:42:00,65.1,29.0,28.53,NNE,22,2.8,6.3,26,0.00,,,0.00,Rainwise IP-100,2013-05-05 02:42:00,
2013-05-04 21:47:00,64.6,29.0,28.53,NNE,22,1.4,6.5,26,0.00,,,0.00,Rainwise IP-100,2013-05-05 02:47:00,
2013-05-04 21:52:00,64.1,29.0,28.53,North,360,5.6,6.3,27,0.00,,,0.00,Rainwise IP-100,2013-05-05 02:52:00,
2013-05-04 21:57:00,63.8,29.0,28.53,NNE,22,1.6,8.4,27,0.00,,,0.00,Rainwise IP-100,2013-05-05 02:57:00,
2013-05-04 22:02:00,63.7,31.0,28.54,NE,45,5.1,7.0,28,0.00,,,0.00,Rainwise IP-100,2013-05-05 03:02:00,
2013-05-04 22:07:00,63.8,31.0,28.54,North,360,3.7,6.3,28,0.00,,,0.00,Rainwise IP-100,2013-05-05 03:07:00,
2013-05-04 22:12:00,63.8,31.0,28.54,NNE,22,2.8,7.2,28,0.00,,,0.00,Rainwise IP-100,2013-05-05 03:12:00,
2013-05-04 22:17:00,63.6,31.0,28.54,NNE,22,3.3,6.5,28,0.00,,,0.00,Rainwise IP-100,2013-05-05 03:17:00,
2013-05-04 22:22:00,63.5,31.0,28.54,NNE,22,2.6,5.1,28,0.00,,,0.00,Rainwise IP-100,2013-05-05 03:22:00,
2013-05-04 22:27:00,63.3,31.0,28.55,NE,45,3.5,4.7,28,0.00,,,0.00,Rainwise IP-100,2013-05-05 03:27:00,
2013-05-04 22:32:00,62.9,29.0,28.55,NNE,22,3.7,6.8,28,0.00,,,0.00,Rainwise IP-100,2013-05-05 03:32:00,
2013-05-04 22:37:00,62.7,29.0,28.55,NNE,22,3.0,4.4,28,0.00,,,0.00,Rainwise IP-100,2013-05-05 03:37:00,
2013-05-04 22:42:00,62.5,29.0,28.55,NNE,22,1.2,4.4,28,0.00,,,0.00,Rainwise IP-100,2013-05-05 03:42:00,
2013-05-04 22:47:00,62.3,29.0,28.56,NNE,22,3.0,4.0,28,0.00,,,0.00,Rainwise IP-100,2013-05-05 03:47:00,
2013-05-04 22:52:00,62.0,29.0,28.56,NNE,22,2.1,3.5,29,0.00,,,0.00,Rainwise IP-100,2013-05-05 03:52:00,
2013-05-04 22:57:00,61.7,29.0,28.56,NNE,22,1.4,3.3,29,0.00,,,0.00,Rainwise IP-100,2013-05-05 03:57:00,
2013-05-04 22:58:00,61.5,29.0,28.55,NNE,22,1.9,3.7,29,0.00,,,0.00,Rainwise IP-100,2013-05-05 03:58:00,
2013-05-04 23:00:00,61.5,29.0,28.56,NNE,22,2.1,3.7,29,0.00,,,0.00,Rainwise IP-100,2013-05-05 04:00:00,
2013-05-04 23:01:00,61.4,29.0,28.56,NNE,22,0.0,3.7,29,0.00,,,0.00,Rainwise IP-100,2013-05-05 04:01:00,
2013-05-04 23:06:00,61.0,29.0,28.56,NNE,22,1.6,2.8,30,0.00,,,0.00,Rainwise IP-100,2013-05-05 04:06:00,
2013-05-04 23:11:00,60.9,29.0,28.56,NNE,22,1.4,3.5,30,0.00,,,0.00,Rainwise IP-100,2013-05-05 04:11:00,
2013-05-04 23:16:00,60.7,29.0,28.56,NNE,22,2.3,2.8,30,0.00,,,0.00,Rainwise IP-100,2013-05-05 04:16:00,
2013-05-04 23:21:00,60.6,29.0,28.56,NNE,22,2.8,3.5,31,0.00,,,0.00,Rainwise IP-100,2013-05-05 04:21:00,
2013-05-04 23:26:00,60.5,29.0,28.56,NNE,22,0.0,3.7,31,0.00,,,0.00,Rainwise IP-100,2013-05-05 04:26:00,
2013-05-04 23:31:00,60.7,29.0,28.56,NNE,22,2.3,7.2,30,0.00,,,0.00,Rainwise IP-100,2013-05-05 04:31:00,
2013-05-04 23:36:00,61.1,29.0,28.56,NNE,22,2.8,6.1,30,0.00,,,0.00,Rainwise IP-100,2013-05-05 04:36:00,
2013-05-04 23:41:00,61.3,31.0,28.56,NNE,22,2.3,4.7,30,0.00,,,0.00,Rainwise IP-100,2013-05-05 04:41:00,
2013-05-04 23:46:00,61.0,29.0,28.57,NNE,22,2.6,3.7,30,0.00,,,0.00,Rainwise IP-100,2013-05-05 04:46:00,
2013-05-04 23:51:00,60.6,29.0,28.57,NNE,22,3.5,3.5,31,0.00,,,0.00,Rainwise IP-100,2013-05-05 04:51:00,
2013-05-04 23:56:00,60.3,29.0,28.57,NNW,337,3.5,5.4,31,0.00,,,0.00,Rainwise IP-100,2013-05-05 04:56:00,